sat.trackr.live / text

‹ back to catalog

STARLINK-31920

NORAD 59907 · 2024-100Y

PAYLOAD ACTIVE UNKNOWN

§ Identity

Operator
Country
US
Launch date
2024-05-28
Launch site
AFETR
Launch vehicle
Mass (kg)
RCS (m²)

Purposes: comms

External: N2YO · Heavens-Above · Gunter

§ Orbital elements

Epoch: 2026-09-20T14:38:52.404864Z

Period
91.39 min
Inclination
42.9852°
Eccentricity
0.0028167
Mean motion
15.75626324 rev/d
Perigee alt
323.9 km
Apogee alt
361.8 km
Semi-major
6,721.0 km
B*
6.1582e-4
RAAN
23.3233°
Arg perigee
344.9966°
Mean anomaly
15.0066°
Rev number
13,188

§ Raw data

STARLINK-319201 59907U 24100Y   26263.61032876  .00100230  00000+0  61582-3 0  99992 59907  42.9852  23.3233 0028167 344.9966  15.0066 15.75626324131883

JSON: /api/v1/satellites/59907 · /tle

For live sub-satellite position, see the globe view (requires WebGL).

§ Visibility from observer

Set your observer location to see the next 7 days of passes ≥ 10°. The values pass through the URL so the page stays shareable.

No JS? Fill the form by hand. The geolocation button needs JavaScript.